Location: Brenelle
(49.3661°N, 3.5424°E)
Time: 18:26:02
(UTC+00:00)

Daily predictions for brighter satellites

Satellite Brightness Start Highest point End
(mag) Time Altitude Azimuth Time Altitude Azimuth Time Altitude Azimuth
NOSS 2-2 (D) 4.5 16:50:21 10° NW 16:55:35 66° NE 17:02:51 10° SE
GENESIS II 4.4 16:55:00 10° SSW 16:58:57 59° SE 17:02:57 10° NE
CZ-4C R/B 3.4 16:56:34 10° N 16:59:49 63° WNW 17:03:07 10° SSW
Landsat 5 3.5 16:56:40 10° NNE 17:00:33 76° WNW 17:04:31 10° SSW
USA 307 3.2 16:58:24 10° WNW 17:02:38 53° NNE 17:06:50 10° E
Meteor 2-21 Rocket 4.5 16:56:59 10° N 17:03:08 63° ENE 17:09:12 10° SSE
CZ-4B R/B 3.3 16:57:55 10° SSE 17:03:32 88° WSW 17:09:05 10° NNW
Cosmos 1939 Rocket 3.7 17:00:41 10° SE 17:04:06 28° ENE 17:07:28 10° N
YAOGAN 1 4.0 17:02:15 10° ESE 17:05:12 18° ENE 17:08:09 10° NNE
Okean O Rocket 1.6 17:03:02 10° SSE 17:07:23 90° S 17:11:47 10° NNW
SeaSat 1 4.1 17:04:33 10° ENE 17:07:33 16° NE 17:10:32 10° N
USA 308 3.2 17:03:20 10° WNW 17:07:34 55° NNE 17:11:47 10° E
Cosmos 1408 4.3 17:06:29 10° NNE 17:08:38 15° ENE 17:10:46 10° ESE
Cosmos 1331 Rocket 4.0 17:03:34 10° S 17:08:39 65° ESE 17:13:46 10° NNE
Timation 2 Rocket 4.2 17:02:24 10° NNW 17:09:02 83° ENE 17:15:51 10° SSE
Meteor 2-14 Rocket 4.5 17:04:05 10° N 17:10:17 84° E 17:16:24 10° S
Cosmos 2227 Rocket 2.4 17:07:29 10° NNW 17:13:00 50° NE 17:18:30 10° SE
Cosmos 1908 4.0 17:09:29 10° SSW 17:13:15 56° WNW 17:17:06 10° N
NOAA 12 4.2 17:08:26 10° SSE 17:13:44 86° WSW 17:19:06 10° NNW
Cosmos 1726 Rocket 3.7 17:09:36 10° SSE 17:13:49 50° E 17:18:05 10° NNE
USA 215 3.9 17:07:51 10° ENE 17:14:01 46° N 17:20:11 10° WNW
Cosmos 1892 3.8 17:11:25 10° NNE 17:14:42 25° ENE 17:17:57 10° SE
ATLAS 2AS CENTAUR R/B 3.8 17:08:56 10° NW 17:15:46 32° NNE 17:22:01 11° ENE
Cosmos 2263 Rocket 3.9 17:12:38 10° N 17:16:03 16° NNE 17:19:27 10° ENE
Cosmos 1758 Rocket 4.1 17:11:50 10° NNW 17:16:13 66° W 17:20:31 10° S
Helios 1A Rocket 3.8 17:12:51 10° SE 17:16:24 28° ENE 17:19:56 10° N
Cosmos 2228 2.9 17:12:40 10° S 17:16:54 71° E 17:21:11 10° NNE
Aureole 3 Rocket 3.8 17:14:40 10° SSE 17:18:33 37° E 17:23:46 10° NNE
Cosmos 1400 Rocket 3.5 17:15:01 10° SSE 17:18:44 34° E 17:22:27 10° NNE
Cosmos 292 Rocket 3.8 17:16:16 10° S 17:21:00 64° ESE 17:25:47 10° NNE
Cosmos 968 Rocket 3.8 17:17:37 10° NNW 17:22:40 45° ENE 17:27:37 10° SE
IRS-1C Rocket 4.2 17:17:48 10° SE 17:22:54 52° ENE 17:28:02 10° N
Cosmos 1553 Rocket 4.4 17:19:45 10° SSE 17:25:33 39° E 17:31:18 10° NNE
Cosmos 1300 2.6 17:23:15 10° S 17:27:02 69° E 17:30:51 10° NNE
FALCON 9 DEB 3.2 17:23:58 10° SW 17:27:08 55° SSE 17:29:34 16° ENE
Lacrosse 5 2.9 17:23:19 10° WNW 17:27:58 35° N 17:32:14 12° ENE
Cosmos 1606 Rocket 3.6 17:25:27 10° S 17:29:49 90° SSE 17:34:17 10° N
CZ-4 R/B 2.1 17:26:46 10° SE 17:30:09 29° ENE 17:33:32 10° N
FALCON 9 DEB 3.1 17:27:03 10° SW 17:30:13 60° SSE 17:32:31 17° ENE
Cosmos 1697 Rocket 3.8 17:26:02 10° SSE 17:30:18 23° ESE 17:34:37 10° NE
SMAP 3.9 17:26:46 10° S 17:31:20 54° W 17:35:55 10° NNW
Cosmos 2058 3.7 17:28:10 10° N 17:31:46 29° ENE 17:35:21 10° SE
Cosmos 1825 3.6 17:30:21 10° NNE 17:33:03 18° ENE 17:34:22 16° E
SAR-Lupe-4 3.8 17:30:33 10° NNE 17:34:02 48° E 17:37:31 10° S
ERBS 4.1 17:32:38 10° NW 17:35:18 21° N 17:37:25 13° NE
SKYMED 2 3.9 17:33:23 10° NNE 17:37:35 45° E 17:41:45 10° S
ERS-2 2.2 17:34:21 10° NNE 17:38:01 82° WNW 17:41:40 10° SSW
CZ-2D R/B 3.5 17:34:31 10° SE 17:38:09 45° ENE 17:41:49 10° N
Cosmos 1110 Rocket 4.4 17:33:05 10° SSW 17:38:19 69° WNW 17:43:33 10° NNE
FALCON 9 DEB 3.6 17:35:30 10° WNW 17:38:50 47° N 17:40:54 20° ENE
ADEOS Rocket 4.0 17:33:47 10° N 17:40:00 56° WNW 17:46:52 10° SW
SL-4 R/B 1.8 17:36:53 10° WNW 17:40:23 61° N 17:42:47 20° E
Cosmos 1302 Rocket 4.0 17:35:15 10° S 17:40:27 64° ESE 17:45:43 10° NNE
NOAA 11 4.3 17:36:05 10° SSE 17:41:32 81° WSW 17:47:00 10° NNW
Cosmos 1346 Rocket 3.3 17:37:48 10° N 17:41:32 37° ENE 17:45:16 10° SE
Okean-O 2.9 17:38:31 10° SE 17:42:46 47° ENE 17:47:02 10° N
FALCON 9 DEB 2.9 17:40:20 10° WSW 17:43:34 71° SSE 17:45:25 23° ENE
USA 281 4.1 17:37:40 10° S 17:44:02 53° WSW 17:50:28 10° NNW
SL-08 R/B 4.4 17:38:40 10° N 17:44:49 65° ENE 17:50:53 10° SSE
Cosmos 1340 2.5 17:41:21 10° N 17:45:09 80° ENE 17:48:56 10° SSE
Cosmos 1486 Rocket 4.0 17:42:27 10° NNW 17:47:49 73° ENE 17:53:08 10° SSE
Cosmos 1745 Rocket 4.1 17:43:28 10° N 17:49:38 53° ENE 17:55:48 10° SSE
Cosmos 1315 Rocket 3.7 17:47:52 10° SSE 17:51:15 27° E 17:54:02 14° NE
SAR-Lupe-1 3.9 17:48:20 10° NNE 17:51:57 74° ESE 17:55:32 10° S
Cosmos 1689 Rocket 2.0 17:49:47 10° NNE 17:52:38 54° E 17:55:28 10° S
Cosmos 2297 Rocket 2.4 17:47:07 10° NNW 17:52:48 77° WSW 17:58:27 10° SSE
USA 305 2.8 17:48:41 10° WNW 17:53:01 80° NNE 17:55:44 22° ESE
Cosmos 1980 Rocket 3.4 17:49:44 10° SE 17:53:25 19° ESE 17:53:25 19° ESE
FALCON 9 DEB 2.8 17:50:55 10° WSW 17:54:09 86° SSE 17:55:34 30° ENE
In-Cosmos 22 Rocket 4.1 17:49:29 10° N 17:54:53 86° ENE 18:00:22 10° SSE
CZ-4B R/B 2.2 17:52:17 10° N 17:55:26 49° WNW 17:58:28 10° SSW
Cosmos 1503 Rocket 4.1 17:52:41 10° NNW 17:57:48 53° ENE 18:02:57 10° SE
USA 306 2.8 17:55:10 10° WNW 17:59:29 85° NNE 18:01:57 25° ESE
CSL-04 Debris 4.4 17:55:17 10° SE 18:00:27 46° ENE 18:05:40 10° N
Aureole 3 2.6 17:57:43 10° SSW 18:00:47 79° W 18:03:47 10° N
Cosmos 2058 Rocket 3.2 18:01:02 10° SSW 18:05:31 79° W 18:10:05 10° N
CZ-2C R/B 3.2 18:03:19 10° SSE 18:09:03 68° ENE 18:14:36 10° N
Cosmos 1354 Rocket 4.0 18:04:48 10° NNW 18:10:01 58° ENE 18:14:14 16° SE
CZ-4C R/B 3.7 18:07:48 10° NW 18:13:39 32° NNE 18:17:00 23° ENE
Cosmos 1455 2.3 18:11:18 10° S 18:14:56 49° E 18:17:16 21° NNE
Cosmos 1992 Rocket 4.0 18:13:09 10° S 18:18:14 56° ESE 18:22:43 13° NNE
Cosmos 1709 Rocket 4.2 18:13:03 10° N 18:19:16 51° ENE 18:25:28 10° SSE
Meteor 2-10 Rocket 3.4 18:15:23 10° S 18:20:38 71° E 18:25:44 10° NNE
Cosmos 1076 Rocket 3.3 18:16:46 10° N 18:21:01 66° ENE 18:25:00 11° SSE
Cosmos 2219 4.4 18:19:11 10° NW 18:24:37 44° WSW 18:30:01 10° S
Cosmos 2278 4.2 18:19:42 10° S 18:24:45 34° ESE 18:24:51 34° ESE
COSMO-SKYMED 1 3.0 18:21:23 10° N 18:25:42 62° WNW 18:29:59 10° SSW
Meteor 2-3 Rocket 4.4 18:21:54 10° N 18:27:03 33° ENE 18:27:07 33° ENE
Ariane Rocket 3.9 18:30:46 30° NE 18:30:46 30° NE 18:34:32 10° N
Geosat 4.2 18:29:49 39° ENE 18:31:04 47° ESE 18:35:55 10° S
Cosmos 44 4.4 18:27:34 10° WSW 18:31:55 40° NW 18:35:30 16° NNE
Cosmos 2082 3.8 18:27:01 10° NNW 18:32:47 81° WSW 18:38:04 12° SSE
ATLAS 5 CENTAUR R/B 3.9 18:31:02 10° NW 18:34:08 17° N 18:36:16 14° NNE
H-2A R/B 2.0 18:30:09 10° SSE 18:35:34 79° ENE 18:41:04 10° NNW
Cosmos 883 Rocket 4.4 18:29:55 10° S 18:35:56 58° E 18:41:55 10° NNE
SJ-11-01 4.1 18:34:07 14° SSE 18:38:08 84° ENE 18:42:50 10° NNW
ARGOS 3.1 18:36:01 26° SE 18:39:08 66° ENE 18:44:32 10° N
CRYOSAT 2 4.2 18:35:15 10° N 18:40:09 82° E 18:45:01 10° S
YAOGAN 1 3.0 18:36:36 10° S 18:40:52 61° WSW 18:45:10 10° NNW
S3M 3.9 18:35:32 10° S 18:41:39 85° W 18:47:53 10° N
USA 307 3.3 18:38:33 10° WNW 18:42:46 58° SW 18:43:36 48° S
Cosmos 2315 Rocket 4.0 18:37:21 10° SSE 18:43:21 54° E 18:49:22 10° NNE
GEOS 3 Rocket 3.6 18:41:32 38° SE 18:43:43 88° NE 18:49:09 10° NW
Cosmos 1408 3.5 18:40:23 10° NNW 18:43:56 49° W 18:47:28 10° S
SeaSat 1 2.4 18:43:27 54° E 18:44:16 64° NE 18:49:11 10° NNW
Cosmos 1656 4.1 18:39:07 10° SW 18:44:38 62° WNW 18:50:17 10° NNE
NOSS 3-4 (A) 3.8 18:39:06 10° NW 18:45:55 66° NE 18:48:36 41° ESE
NOSS 3-4 (C) 3.8 18:39:11 10° NW 18:46:01 65° NE 18:48:40 41° ESE
USA 308 3.4 18:43:29 10° WNW 18:47:41 54° SW 18:48:20 48° S
Cosmos 1812 Rocket 3.4 18:43:37 10° S 18:48:02 87° E 18:52:26 10° N
Cosmos 2369 3.6 18:42:57 10° SSW 18:48:38 74° ESE 18:51:18 33° NE
Cosmos 1844 Rocket 4.4 18:45:18 10° N 18:48:28 17° NNE 18:48:28 17° NNE
DEBRIS 4.3 18:31:02 10° WSW 18:50:03 69° SSE 18:51:52 47° E
NOSS 3-3 (A) 3.8 18:50:31 10° SW 18:56:24 83° SE 18:59:03 38° NE
USA 215 3.4 18:54:35 44° ENE 18:56:28 59° NNE 19:02:52 10° WNW
NOSS 3-3 (C) 3.8 18:50:38 10° SW 18:56:31 83° SE 18:59:06 39° NE
Cosmos 2227 Rocket 3.9 18:51:54 10° NW 18:56:52 32° WSW 19:01:48 10° SSW
MOS 1 Rocket 3.3 18:52:46 10° NNE 18:57:28 87° WNW 19:02:27 10° SSW
CSL-04 Rocket 3.9 18:53:22 10° S 18:58:54 69° WSW 19:04:24 10° NNW
Cosmos 2263 Rocket 2.3 18:55:41 10° NNW 19:01:09 55° NE 19:01:09 55° NE
CZ-4 R/B 3.4 19:01:52 10° SSW 19:05:11 26° W 19:08:30 10° NW
Cosmos 2151 3.9 19:02:18 10° N 19:05:02 39° NNW 19:05:02 39° NNW
ATLAS 2AS CENTAUR R/B 2.8 19:00:29 10° NW 19:08:06 69° NE 19:09:28 57° E
Cosmos 1825 3.4 19:05:10 10° NNW 19:08:45 40° W 19:09:13 38° WSW
BREEZE-M R/B 4.0 19:04:26 10° WNW 19:08:56 72° SSW 19:10:34 53° SE
Lacrosse 5 2.6 19:06:59 10° NW 19:11:26 43° N 19:11:26 43° N
Cosmos 1697 Rocket 2.9 19:08:11 10° SW 19:13:46 67° WNW 19:16:32 31° NNE
Cosmos 1777 Rocket 4.0 19:10:09 10° NNW 19:14:48 70° N 19:14:48 70° N
Cosmos 44 Rocket 4.2 19:14:06 10° SW 19:17:10 40° SSW 19:17:10 40° SSW
SL-4 R/B 3.6 19:16:23 10° WNW 19:18:22 30° W 19:18:22 30° W
Cosmos 1980 Rocket 2.8 19:31:15 10° SSW 19:35:17 48° SW 19:35:17 48° SW
SJ 16-02 4.1 19:55:34 10° NNW 19:55:54 12° NNW 19:55:54 12° NNW
CZ-4C R/B 3.0 19:56:14 10° NW 20:02:10 65° NNW 20:02:10 65° NNW
ATLAS 5 CENTAUR R/B 4.3 20:16:19 10° NNW 20:17:47 17° NNW 20:17:47 17° NNW
USA 215 4.3 20:41:56 40° WNW 20:41:56 40° WNW 20:45:59 10° WNW
Cosmos 2263 Rocket 4.3 20:40:07 10° NW 20:42:52 23° WNW 20:42:52 23° WNW
ATLAS 2AS CENTAUR R/B 4.2 20:52:05 10° NW 20:56:55 31° W 20:56:55 31° W
